Weather History for K4A9 - February, 2014

Change the Weather History Date:

Tuesday, February 25, 2014

  Actual Average (KRMG) Record (KRMG)
Temperature  
Mean Temperature 44 °F 47 °F  
Max Temperature 57 °F 59 °F 71 °F (1998)
Min Temperature 32 °F 35 °F 25 °F (2015)
Degree Days  
Heating Degree Days 20 18  
Month to date heating degree days 526  
Since 1 July heating degree days 2568  
Moisture  
Dew Point 32 °F    
Average Humidity 52    
Maximum Humidity 93    
Minimum Humidity 38    
Precipitation  
Precipitation 0.00 in 0.19 in 0.93 in (2001)
Month to date precipitation 4.26  
Year to date precipitation 9.08  
Sea Level Pressure  
Sea Level Pressure 30.05 in    
Wind  
Wind Speed 2 mph (NNW)    
Max Wind Speed 7 mph    
Max Gust Speed -    
Visibility 10 miles    
Events Rain    
T = Trace of Precipitation, MM = Missing Value Source: NWS Daily Summary

Daily Weather History Graph

Daily Weather History Graph

Search for Another Location

Airport or City:

Trip Planner

Search our weather history database for the weather conditions in past years. The results will help you decide how hot, cold, wet, or windy it might be!

Date:

Astronomy

Feb. 25, 2014 Rise Set
Actual Time 6:16 AM CST 5:35 PM CST
Civil Twilight 5:51 AM CST 6:00 PM CST
Nautical Twilight 5:22 AM CST 6:30 PM CST
Astronomical Twilight 4:53 AM CST 6:59 PM CST
Moon 3:04 AM CST (2/25) 1:47 PM CST (2/25)
Length of Visible Light 12h 09m
Length of Day
11h 18m
Waning Crescent, 18% of the Moon is Illuminated
Feb 25
Waning Crescent
Mar 1
New
Mar 8
First Quarter
Mar 16
Full
Mar 23
Last Quarter

Hourly Weather History & Observations

Time (CST) Temp. Windchill Dew Point Humidity Pressure Visibility Wind Dir Wind Speed Gust Speed Precip Events Conditions
12:15 AM 33.8 °F - - N/A% 30.09 in 10.0 mi Calm Calm - N/A   Clear
12:40 AM 32.0 °F - - N/A% 30.10 in 10.0 mi Calm Calm - N/A   Clear
12:55 AM 32.0 °F 28.7 °F - N/A% 30.10 in 10.0 mi NNE 3.5 mph - N/A   Clear
1:15 AM 33.8 °F - - N/A% 30.09 in 10.0 mi Calm Calm - N/A   Mostly Cloudy
1:30 AM 32.0 °F 28.7 °F - N/A% 30.08 in 10.0 mi NNE 3.5 mph - N/A   Mostly Cloudy
1:55 AM 33.8 °F - - N/A% 30.06 in 10.0 mi Calm Calm - N/A   Mostly Cloudy
2:15 AM 33.8 °F - - N/A% 30.06 in 10.0 mi Calm Calm - N/A   Mostly Cloudy
3:55 AM 35.6 °F - - N/A% 30.03 in 10.0 mi Calm Calm - N/A   Overcast
4:15 AM 37.4 °F 34.9 °F - N/A% 30.05 in 10.0 mi ENE 3.5 mph - N/A   Overcast
4:35 AM 37.4 °F - - N/A% 30.09 in 10.0 mi Calm Calm - N/A Rain Light Rain
4:55 AM 37.4 °F 32.8 °F - N/A% 30.08 in 4.0 mi ESE 5.8 mph - N/A Rain Rain
5:20 AM 37.4 °F 33.8 °F - N/A% 30.10 in 10.0 mi East 4.6 mph - N/A   Overcast
5:35 AM 37.4 °F 34.9 °F - N/A% 30.10 in 4.0 mi East 3.5 mph - N/A Rain Rain
5:55 AM 37.4 °F 34.9 °F - N/A% 30.10 in 10.0 mi ENE 3.5 mph - N/A   Overcast
6:15 AM 37.4 °F - - N/A% 30.11 in 7.0 mi Calm Calm - N/A Rain Light Rain
6:35 AM 37.4 °F - - N/A% 30.12 in 5.0 mi Calm Calm - N/A Rain Light Rain
6:55 AM 37.4 °F - - N/A% 30.10 in 10.0 mi Calm Calm - N/A   Light Drizzle
7:15 AM 37.4 °F - - N/A% 30.11 in 10.0 mi Calm Calm - N/A   Overcast
7:35 AM 37.4 °F - - N/A% 30.12 in 10.0 mi Calm Calm - N/A   Overcast
7:55 AM 37.4 °F - - N/A% 30.13 in 10.0 mi Calm Calm - N/A   Overcast
8:15 AM 37.4 °F - - N/A% 30.12 in 10.0 mi Calm Calm - N/A   Overcast
8:35 AM 39.2 °F - - N/A% 30.13 in 10.0 mi Calm Calm - N/A   Overcast
8:55 AM 39.2 °F - - N/A% 30.13 in 10.0 mi Calm Calm - N/A   Overcast
9:15 AM 39.2 °F - - N/A% 30.13 in 10.0 mi Calm Calm - N/A   Overcast
9:35 AM 41.0 °F - - N/A% 30.13 in 10.0 mi Calm Calm - N/A   Overcast
9:55 AM 42.8 °F - - N/A% 30.12 in 10.0 mi Calm Calm - N/A   Overcast
10:15 AM 44.6 °F - - N/A% 30.12 in 10.0 mi Calm Calm - N/A   Overcast
10:35 AM 44.6 °F - - N/A% 30.11 in 10.0 mi Calm Calm - N/A   Overcast
10:50 AM 46.4 °F - - N/A% 30.10 in 10.0 mi Calm Calm - N/A   Overcast
11:20 AM 50.0 °F - 37.4 °F 62% 30.10 in 10.0 mi Calm Calm - N/A   Clear
11:35 AM 51.8 °F - 37.4 °F 58% 30.09 in 10.0 mi Calm Calm - N/A   Clear
11:55 AM 53.6 °F - 33.8 °F 47% 30.08 in 10.0 mi NW 4.6 mph - N/A   Scattered Clouds
12:15 PM 53.6 °F - 32.0 °F 44% 30.06 in 10.0 mi NNW 5.8 mph - N/A   Overcast
12:35 PM 55.4 °F - 32.0 °F 41% 30.05 in 10.0 mi WNW 6.9 mph - N/A   Mostly Cloudy
12:55 PM 55.4 °F - 32.0 °F 41% 30.03 in 10.0 mi NE 4.6 mph - N/A   Scattered Clouds
1:15 PM 57.2 °F - 32.0 °F 38% 30.02 in 10.0 mi WNW 5.8 mph - N/A   Mostly Cloudy
1:35 PM 55.4 °F - 32.0 °F 41% 30.02 in 10.0 mi NNW 6.9 mph - N/A   Overcast
1:55 PM 57.2 °F - 32.0 °F 38% 30.01 in 10.0 mi West 5.8 mph - N/A   Overcast
2:15 PM 57.2 °F - 32.0 °F 38% 30.00 in 10.0 mi NW 4.6 mph - N/A   Overcast
2:35 PM 55.4 °F - 32.0 °F 41% 29.99 in 10.0 mi West 5.8 mph - N/A   Overcast
2:55 PM 55.4 °F - 32.0 °F 41% 29.99 in 10.0 mi WNW 5.8 mph - N/A   Mostly Cloudy
3:15 PM 55.4 °F - 32.0 °F 41% 29.98 in 10.0 mi Calm Calm - N/A   Mostly Cloudy
3:35 PM 55.4 °F - 32.0 °F 41% 29.97 in 10.0 mi Calm Calm - N/A   Scattered Clouds
3:55 PM 57.2 °F - 33.8 °F 41% 29.97 in 10.0 mi WSW 4.6 mph - N/A   Clear
4:15 PM 55.4 °F - 32.0 °F 41% 29.97 in 10.0 mi West 3.5 mph - N/A   Clear
4:35 PM 55.4 °F - 32.0 °F 41% 29.97 in 10.0 mi West 4.6 mph - N/A   Clear
4:55 PM 55.4 °F - 32.0 °F 41% 29.97 in 10.0 mi West 5.8 mph - N/A   Clear
5:15 PM 55.4 °F - 32.0 °F 41% 29.97 in 10.0 mi WSW 5.8 mph - N/A   Clear
5:35 PM 53.6 °F - 32.0 °F 44% 29.98 in 10.0 mi WNW 4.6 mph - N/A   Clear
5:55 PM 51.8 °F - 33.8 °F 50% 29.98 in 10.0 mi West 3.5 mph - N/A   Clear
6:15 PM 50.0 °F - 37.4 °F 62% 29.99 in 10.0 mi Calm Calm - N/A   Clear
6:35 PM 48.2 °F - 42.8 °F 82% 29.99 in 10.0 mi Calm Calm - N/A   Scattered Clouds
6:55 PM 46.4 °F 45.2 °F 44.6 °F 93% 30.00 in 10.0 mi West 3.5 mph - N/A   Scattered Clouds
7:15 PM 50.0 °F - 30.2 °F 47% 30.00 in 10.0 mi NNW 4.6 mph - N/A   Clear
7:35 PM 48.2 °F - 26.6 °F 43% 30.01 in 10.0 mi Calm Calm - N/A   Clear
7:55 PM 46.4 °F 43.5 °F 24.8 °F 43% 30.01 in 10.0 mi North 5.8 mph - N/A   Clear
8:15 PM 44.6 °F 42.2 °F 24.8 °F 46% 30.03 in 10.0 mi NNE 4.6 mph - N/A   Scattered Clouds
8:35 PM 44.6 °F 40.7 °F 23.0 °F 43% 30.02 in 10.0 mi NE 6.9 mph - N/A   Mostly Cloudy
8:55 PM 42.8 °F 40.1 °F 24.8 °F 49% 30.02 in 10.0 mi North 4.6 mph - N/A   Scattered Clouds
9:15 PM 42.8 °F 41.1 °F 23.0 °F 46% 30.00 in 10.0 mi East 3.5 mph - N/A   Clear
9:35 PM 41.0 °F 39.0 °F 24.8 °F 53% 29.99 in 10.0 mi North 3.5 mph - N/A   Clear
9:55 PM 41.0 °F - 24.8 °F 53% 30.00 in 10.0 mi Calm Calm - N/A   Clear
10:15 PM 37.4 °F - 30.2 °F 75% 30.01 in 10.0 mi Calm Calm - N/A   Scattered Clouds
10:35 PM 39.2 °F - 32.0 °F 75% 30.01 in 10.0 mi Calm Calm - N/A   Mostly Cloudy
10:55 PM 39.2 °F - 32.0 °F 75% 29.99 in 10.0 mi Calm Calm - N/A   Mostly Cloudy
11:15 PM 39.2 °F - 37.4 °F 93% 29.99 in 10.0 mi Calm Calm - N/A   Scattered Clouds
11:35 PM 39.2 °F - 35.6 °F 87% 29.98 in 10.0 mi Calm Calm - N/A   Mostly Cloudy
11:55 PM 41.0 °F - 32.0 °F 70% 29.98 in 10.0 mi Calm Calm - N/A Rain Light Rain